Weather History for Bloomington, IN

Change the Weather History Date:

Wednesday, January 15, 2003

  Actual Average Record
Temperature  
Mean Temperature 18 °F 29 °F  
Max Temperature 26 °F 38 °F 60 °F (2007)
Min Temperature 10 °F 20 °F -6 °F (2009)
Degree Days  
Heating Degree Days 47 36  
Month to date heating degree days 540  
Since 1 July heating degree days 2613  
Cooling Degree Days 0 0  
Month to date cooling degree days 0  
Year to date cooling degree days 0  
Moisture  
Dew Point 5 °F    
Average Humidity 59    
Maximum Humidity 78    
Minimum Humidity 34    
Precipitation  
Precipitation 0.00 in 0.12 in 0.84 in (2007)
Month to date precipitation 1.88  
Year to date precipitation 1.88  
Sea Level Pressure  
Sea Level Pressure 30.40 in    
Wind  
Wind Speed 6 mph (West)    
Max Wind Speed 12 mph    
Max Gust Speed 18 mph    
Visibility 10 miles    
Events      
T = Trace of Precipitation, MM = Missing Value Source: NWS Daily Summary

Daily Weather History Graph

Daily Weather History Graph

Search for Another Location

Airport:

Trip Planner

Search our weather history database for the weather conditions in past years. The results will help you decide how hot, cold, wet, or windy it might be!

Date:

Astronomy

Jan. 15, 2003 Rise Set
Actual Time 8:04 AM EST 5:47 PM EST
Civil Twilight 7:35 AM EST 6:17 PM EST
Nautical Twilight 7:02 AM EST 6:49 PM EST
Astronomical Twilight 6:29 AM EST 7:22 PM EST
Moon 3:12 PM EST (1/15) 5:43 AM EST (1/15)
Length of Visible Light 10h 42m
Length of Day
9h 43m
Waxing Gibbous, 92% of the Moon is Illuminated
Jan 15
Waxing Gibbous
Jan 18
Full
Jan 25
Last Quarter
Feb 1
New
Feb 9
First Quarter

Hourly Weather History & Observations

Time (EST) Temp. Windchill Dew Point Humidity Pressure Visibility Wind Dir Wind Speed Gust Speed Precip Events Conditions
12:53 AM 14.0 °F 2.9 °F 3.9 °F 64% 30.36 in 10.0 mi West 8.1 mph - N/A   Clear
1:53 AM 12.9 °F 2.6 °F 3.0 °F 65% 30.37 in 10.0 mi West 6.9 mph - N/A   Clear
2:53 AM 12.0 °F 4.1 °F 1.9 °F 64% 30.38 in 10.0 mi West 4.6 mph - N/A   Clear
3:53 AM 10.9 °F 0.2 °F 1.9 °F 67% 30.38 in 10.0 mi West 6.9 mph - N/A   Clear
4:53 AM 10.9 °F 1.4 °F 1.9 °F 67% 30.38 in 10.0 mi West 5.8 mph - N/A   Clear
5:53 AM 10.9 °F 1.4 °F 3.0 °F 70% 30.38 in 10.0 mi West 5.8 mph - N/A   Clear
6:53 AM 10.0 °F 0.4 °F 3.0 °F 73% 30.39 in 10.0 mi West 5.8 mph - N/A   Clear
7:53 AM 10.0 °F 1.8 °F 3.9 °F 76% 30.41 in 10.0 mi West 4.6 mph - N/A   Clear
8:53 AM 12.9 °F 3.8 °F 5.0 °F 71% 30.42 in 10.0 mi West 5.8 mph - N/A   Clear
9:53 AM 16.0 °F 3.6 °F 5.0 °F 62% 30.43 in 10.0 mi WNW 10.4 mph 18.4 mph N/A   Clear
10:53 AM 18.0 °F 7.7 °F 7.0 °F 62% 30.45 in 10.0 mi WNW 8.1 mph - N/A   Clear
11:53 AM 21.0 °F 11.4 °F 6.1 °F 53% 30.45 in 10.0 mi West 8.1 mph - N/A   Clear
12:53 PM 24.1 °F 16.0 °F 1.9 °F 38% 30.43 in 10.0 mi Variable 6.9 mph - N/A   Clear
1:53 PM 25.0 °F 14.2 °F 3.9 °F 41% 30.41 in 10.0 mi West 11.5 mph - N/A   Clear
2:53 PM 26.1 °F 17.6 °F 3.0 °F 37% 30.39 in 10.0 mi WSW 8.1 mph - N/A   Clear
3:53 PM 26.1 °F 18.4 °F 1.0 °F 34% 30.39 in 10.0 mi WSW 6.9 mph - N/A   Clear
4:53 PM 25.0 °F 19.3 °F 1.0 °F 36% 30.40 in 10.0 mi West 4.6 mph - N/A   Clear
5:53 PM 23.0 °F - 1.0 °F 39% 30.41 in 10.0 mi Calm Calm - N/A   Clear
6:53 PM 19.0 °F 13.9 °F 3.9 °F 52% 30.41 in 10.0 mi North 3.5 mph - N/A   Clear
7:53 PM 17.1 °F - 7.0 °F 65% 30.40 in 10.0 mi Calm Calm - N/A   Clear
8:53 PM 18.0 °F - 12.0 °F 78% 30.40 in 10.0 mi Calm Calm - N/A   Clear
9:53 PM 19.9 °F - 12.0 °F 71% 30.39 in 10.0 mi Calm Calm - N/A   Partly Cloudy
10:53 PM 21.0 °F - 12.9 °F 71% 30.38 in 10.0 mi Calm Calm - N/A   Overcast
11:53 PM 23.0 °F 18.4 °F 10.0 °F 58% 30.35 in 10.0 mi ENE 3.5 mph - N/A   Overcast